| Date | Time | Temp. (oF) | Dew Point (oF) | Rel. Hum. (%) | Press. (in.) | Wind Dir. | Wind Speed (mph) | Hourly Rainfall (in.) |
|
|---|---|---|---|---|---|---|---|---|---|
| 1 | 10/03 | 00:00 | 46 | 43 | 90 | 30.12 | E | 4 | 0.00 |
| 2 | 10/02 | 23:00 | 46 | 43 | 90 | 30.13 | ENE | 5 | 0.01 |
| 3 | 10/02 | 22:00 | 46 | 42 | 89 | 30.12 | ESE | 5 | 0.01 |
| 4 | 10/02 | 21:00 | 46 | 42 | 88 | 30.11 | ENE | 8 | 0.01 |
| 5 | 10/02 | 20:00 | 47 | 43 | 88 | 30.10 | E | 6 | 0.01 |
| 6 | 10/02 | 19:00 | 47 | 44 | 90 | 30.07 | E | 7 | 0.04 |
| 7 | 10/02 | 18:00 | 47 | 44 | 90 | 30.08 | E | 4 | 0.03 |
| 8 | 10/02 | 17:00 | 47 | 44 | 90 | 30.09 | ESE | 6 | 0.08 |
| 9 | 10/02 | 16:00 | 48 | 45 | 90 | 30.07 | E | 11 | 0.07 |
| 10 | 10/02 | 15:00 | 49 | 46 | 90 | 30.08 | ENE | 9 | 0.07 |
| 11 | 10/02 | 14:00 | 50 | 46 | 89 | 30.08 | ESE | 4 | 0.03 |
| 12 | 10/02 | 13:00 | 50 | 47 | 90 | 30.08 | N | 5 | 0.03 |
| 13 | 10/02 | 12:00 | 49 | 46 | 90 | 30.08 | ENE | 7 | 0.08 |
| 14 | 10/02 | 11:00 | 49 | 45 | 89 | 30.08 | E | 4 | 0.05 |
| 15 | 10/02 | 10:00 | 49 | 45 | 89 | 30.09 | ENE | 10 | 0.04 |
| 16 | 10/02 | 09:00 | 49 | 45 | 88 | 30.07 | ENE | 3 | 0.04 |
| 17 | 10/02 | 08:00 | 50 | 46 | 88 | 30.07 | ESE | 4 | 0.03 |
| 18 | 10/02 | 07:00 | 50 | 45 | 86 | 30.06 | ENE | 3 | 0.03 |
| 19 | 10/02 | 06:00 | 51 | 45 | 82 | 30.05 | E | 4 | 0.00 |
| 20 | 10/02 | 05:00 | 53 | 45 | 75 | 30.04 | ENE | 10 | 0.00 |
| 21 | 10/02 | 04:00 | 54 | 46 | 76 | 30.05 | ESE | 9 | 0.00 |
| 22 | 10/02 | 03:00 | 54 | 47 | 79 | 30.06 | E | 6 | 0.01 |
| 23 | 10/02 | 02:00 | 55 | 49 | 81 | 30.05 | ENE | 4 | 0.01 |
| 24 | 10/02 | 01:00 | 56 | 49 | 80 | 30.05 | E | 4 | 0.00 |